Weather in Khatazhukay

Russia / Republic of Adygea     45°04′15″N   40°11′11″E
temp.,
°C
wind,
m/s
gust,
m/s
humid.,
%
clouds,
%
prec.,
mm/h
press.,
hPa
HPBL,
m
8 may, sat
sat800:00+12se228410 0.0 101713
03:00+11se348650 0.0 101646
06:00+12se2489100 0.0 101675
09:00+18se237293 0.0 1015409
12:00+22ese2361100 0.0 1013760
15:00+24se2250100 0.0 10121317
18:00+23ese23695 0.0 101071
21:00+17ese338398 0.0 101035
9 may, sun
sun900:00+16wsw3581100 0.0 100871
03:00+14wnw61383100 0.1 1009397
06:00+13wsw51394100 1.8 1010552
09:00+9nw91396100 2.9 1013674
12:00+8wnw61094100 1.6 1016719
15:00+8wnw3793100 6.3 1019595
18:00+9wnw4887100 2.2 1022755
21:00+6wsw36914 2.3 102395
10 may, mon
mon1000:00+5sw510933 0.0 1023185
03:00+5sw499357 0.1 1024189
06:00+5wsw489387 0.1 1024211
09:00+10wnw576647 0.4 10231209
12:00+12w786197 0.6 10221752
15:00+11wnw81070100 1.5 10211535
18:00+8w5985100 0.6 1021805
21:00+7wsw61188100 0.8 1021678
11 may, tue
tue1100:00+7sw91393100 0.9 1018977
03:00+7sw91793100 2.9 10161186
06:00+7sw91892100 5.8 10161193
09:00+7sw111988100 12.3 10161283
12:00+11sw101777100 0.5 10161379
15:00+13wsw91470100 0.6 10171231
18:00+12sw3672100 0.1 1018375
21:00+10ne3580100 0.1 1019154
12 may, wed
wed1200:00+8ene369576 0.2 1018255
03:00+7ene489775 0.2 1018257
06:00+6e3596100 0.0 1017153
09:00+13ese337639 0.0 1016503
12:00+18e45643 0.0 10161103
15:00+20e44603 0.0 10151340
18:00+19ene47750 0.0 1014269
21:00+13e49890 0.0 1014147